| Date | Temp High/Low | Dew Pt High/Low | Humidity | Wind | Max Wind | Wind Gust | Pressure | Precip. | Condition |
|---|---|---|---|---|---|---|---|---|---|
| 12/31/2021 | 49 °F / 34 °F | 46 °F / 34 °F | 96 % | 9 mph | - | 29.42 in | 0.25 in | ||
| 12/30/2021 | 52 °F / 34 °F | 40 °F / 37 °F | 92 % | 6 mph | - | 29.46 in | 0.01 in | ||
| 12/29/2021 | 44 °F / 38 °F | 38 °F / 33 °F | 96 % | 8 mph | - | 29.42 in | 0 in | ||
| 12/28/2021 | 42 °F / 34 °F | 38 °F / 27 °F | 84 % | 23 mph | - | 29.36 in | 0 in | ||
| 12/27/2021 | 44 °F / 34 °F | 34 °F / 20 °F | 82 % | 12 mph | - | 29.52 in | 0 in | ||
| 12/26/2021 | 36 °F / 26 °F | 38 °F / 24 °F | 93 % | 20 mph | - | 29.53 in | 0.99 in | ||
| 12/25/2021 | 40 °F / 30 °F | 38 °F / 30 °F | 98 % | 12 mph | - | 29.1 in | 1.48 in | ||
| 12/24/2021 | 39 °F / 31 °F | 29 °F / 21 °F | 87 % | 13 mph | - | 29.51 in | 0.28 in | ||
| 12/23/2021 | 34 °F / 22 °F | 24 °F / 14 °F | 70 % | 15 mph | - | 29.66 in | 0.06 in | ||
| 12/22/2021 | 32 °F / 22 °F | 33 °F / 17 °F | 71 % | 29 mph | - | 29.29 in | 0.06 in | ||
| 12/21/2021 | 39 °F / 28 °F | 30 °F / 20 °F | 68 % | 13 mph | - | 29.5 in | 0 in | ||
| 12/20/2021 | 40 °F / 30 °F | 23 °F / 18 °F | 69 % | 14 mph | - | 29.74 in | 0 in | ||
| 12/19/2021 | 39 °F / 20 °F | 30 °F / 20 °F | 85 % | 18 mph | - | 29.73 in | 0.03 in | ||
| 12/18/2021 | 32 °F / 24 °F | 34 °F / 26 °F | 91 % | 15 mph | - | 29.55 in | 0.55 in | ||
| 12/17/2021 | 37 °F / 32 °F | 33 °F / 26 °F | 62 % | 25 mph | - | 29.65 in | 0 in | ||
| 12/16/2021 | 56 °F / 34 °F | 53 °F / 30 °F | 55 % | 30 mph | - | 29.38 in | 0 in | ||
| 12/15/2021 | 67 °F / 51 °F | 45 °F / 23 °F | 77 % | 22 mph | - | 29.9 in | 0 in | ||
| 12/14/2021 | 51 °F / 28 °F | 34 °F / 22 °F | 71 % | 8 mph | - | 30.07 in | 0 in | ||
| 12/13/2021 | 48 °F / 30 °F | 29 °F / 20 °F | 41 % | 17 mph | - | 29.7 in | 0 in | ||
| 12/12/2021 | 54 °F / 37 °F | 33 °F / 20 °F | 63 % | 23 mph | - | 29.55 in | 0 in | ||
| 12/11/2021 | 47 °F / 34 °F | 53 °F / 25 °F | 76 % | 39 mph | - | 29.1 in | 0 in | ||
| 12/10/2021 | 64 °F / 36 °F | 35 °F / 24 °F | 70 % | 13 mph | - | 29.57 in | 0 in | ||
| 12/9/2021 | 46 °F / 33 °F | 27 °F / 17 °F | 82 % | 15 mph | - | 29.65 in | 0 in | ||
| 12/8/2021 | 34 °F / 27 °F | 31 °F / 22 °F | 88 % | 18 mph | - | 29.52 in | 0 in | ||
| 12/7/2021 | 35 °F / 28 °F | 30 °F / 17 °F | 70 % | 30 mph | - | 29.63 in | 0 in | ||
| 12/6/2021 | 37 °F / 29 °F | 49 °F / 23 °F | 77 % | 33 mph | - | 29.23 in | 0.11 in | ||
| 12/5/2021 | 57 °F / 36 °F | 28 °F / 19 °F | 58 % | 18 mph | - | 29.75 in | 0 in | ||
| 12/4/2021 | 49 °F / 32 °F | 37 °F / 21 °F | 68 % | 24 mph | - | 29.61 in | 0.01 in | ||
| 12/3/2021 | 47 °F / 33 °F | 33 °F / 19 °F | 71 % | 20 mph | - | 29.5 in | 0 in | ||
| 12/2/2021 | 39 °F / 31 °F | 45 °F / 31 °F | 80 % | 29 mph | - | 29.18 in | 0.14 in | ||
| 12/1/2021 | 53 °F / 39 °F | 34 °F / 27 °F | 75 % | 22 mph | - | 29.57 in | 0 in |